Regional Weather Roundup
Issued by NWS

Home | Current Version | Previous Version | Graphics & Text | Print | Product List | Glossary On
Versions: 1 2 3 4 5 6 7 8 9 10 11 12 13 14 15 16 17 18 19 20 21 22 23 24 25 26 27 28 29 30 31 32 33 34 35 36 37 38 39 40 41 42 43 44 45 46 47 48 49 50
000
ASUS43 KMPX 020210
RWRMN
WEATHER ROUNDUP FOR MINNESOTA
NATIONAL WEATHER SERVICE TWIN CITIES/CHANHASSEN MN
900 PM CDT TUE SEP 01 2015


NOTE: "FAIR" INDICATES FEW OR NO CLOUDS BELOW 12,000 FEET WITH NO
SIGNIFICANT WEATHER AND/OR OBSTRUCTIONS TO VISIBILITY. N/A MEANS
CURRENT SKY AND/OR WEATHER CONDITIONS ARE NOT AVAILABLE.

MNZ060>063-068>070-020300-
   Twin Cities Metro

CITY           SKY/WX    TMP DP  RH WIND       PRES   REMARKS
TWIN CITIES    MOCLDY    82  72  71 SW5       29.91R
ST PAUL        MOCLDY    79  74  84 SE3       29.91R
CRYSTAL        CLOUDY    82  73  74 SW5       29.90R
BLAINE         TSTM      81  77  89 E5        29.92R
LAKEVILLE      PTCLDY    72  72 100 CALM      29.93R
EDEN PRAIRIE   PTCLDY    79  72  79 SW5       29.91R
SOUTH ST PAUL  PTCLDY    80  73  78 CALM      29.91R
LAKE ELMO      FAIR      75  73  94 S3        29.93R
$$
MNZ001>005-007-008-013>017-022>024-027-028-020300-
   Northwest Minnesota

CITY           SKY/WX    TMP DP  RH WIND       PRES   REMARKS
BEMIDJI        PTCLDY    70  53  54 S5        29.91R
HALLOCK        CLEAR     73  55  53 SE7       29.82R
ROSEAU         CLEAR     66  61  82 SE3       29.86R
WARROAD        CLEAR     66  63  88 CALM      29.88R
THIEF RVR FALL CLEAR     70  55  60 SE7       29.87R
CROOKSTON      CLEAR     70  57  64 SE8       29.86R
FOSSTON        CLEAR     72  54  53 SE7       29.90R
DETROIT LAKES  PTCLDY    77  63  61 SE6       29.91R
MOORHEAD       CLEAR     75  64  69 SE5       29.85S
PARK RAPIDS    MOCLDY    76  60  57 E5        29.91R
MAHNOMEN       FAIR      73  59  62 SE7       29.89R
$$
MNZ006-009>011-018-025>026-020300-
   North Central Minnesota

CITY           SKY/WX    TMP DP  RH WIND       PRES   REMARKS
BAUDETTE       CLEAR     68  57  68 SE3       29.88R
FLAG ISLAND    CLEAR     72  63  73 SE3       29.86R
INTL FALLS     CLEAR     59  56  89 CALM      29.91R
WASKISH        PTCLDY    64  61  88 SE3       29.90R
BIG FORK       PTCLDY    64  61  88 CALM      29.93S
LONGVILLE      CLOUDY    66  64  94 CALM      29.93R
GRAND RAPIDS     N/A     70  61  73 CALM      29.93R
CRANE LAKE     PTCLDY    59  57  94 CALM      29.94R
ORR            PTCLDY    64  57  77 CALM      29.91R
COOK           PTCLDY    64  61  88 CALM      29.94S
WALKER         FAIR      67  62  84 CALM      29.92R
$$
MNZ012-019>021-037-020300-
   Northeast Minnesota

CITY           SKY/WX    TMP DP  RH WIND       PRES   REMARKS
DULUTH         PTCLDY    72  68  87 CALM      29.94R
ELY            MOCLDY    63  57  82 CALM      29.95R
HIBBING        PTCLDY    63  59  87 CALM      29.94R
EVELETH        PTCLDY    63  61  94 CALM      29.96R
DULUTH HARBOR  CLEAR     70  66  88 CALM      29.91S
TWO HARBORS    CLEAR     73  68  83 N3        29.92R
SILVER BAY     PTCLDY    68  64  88 CALM      29.93R
GRAND MARAIS     N/A     62  59  90 CALM      29.91R
G MARAIS ARPRT MOCLDY    57  54  88 CALM      29.98S
$$
MNZ029>031-032-039>041-046>048-054>057-064-020300-
   West Central Minnesota

CITY           SKY/WX    TMP DP  RH WIND       PRES   REMARKS
FERGUS FALLS   PTCLDY    75  70  83 SE7       29.86S
WHEATON        MOCLDY    70  66  88 SE7       29.87R
MORRIS         MOCLDY    73  72  94 E7        29.85F FOG
ALEXANDRIA     CLOUDY    74  70  87 E6        29.91F
ELBOW LAKE     FAIR      74  71  89 E8        29.87S
WADENA         CLOUDY    72  66  83 S3        29.91R
GLENWOOD       CLOUDY    72  70  94 E7        29.90F
APPLETON       MOCLDY    75  70  83 S3        29.88R
BENSON         CLOUDY    73  70  88 S7        29.88R
ORTONVILLE     PTCLDY    73  70  88 S5        29.87R
MADISON        MOCLDY    73  72  94 CALM      29.87S FOG
WILLMAR        FAIR      75  73  94 SE7       29.91R FOG
$$
MNZ033>034-036-042>043-049>051-058-059-020300-
   Central Minnesota

CITY           SKY/WX    TMP DP  RH WIND       PRES   REMARKS
ST CLOUD       CLOUDY    76  73  91 SE8       29.89F
SAUK CENTRE    FAIR      73  70  92 CALM      29.92F
PAYNESVILLE    DRIZZLE   74  67  79 CALM      29.92S
AITKIN         CLOUDY    72  66  83 CALM      29.92R
PINE RIVER     CLOUDY    70  64  83 CALM      29.95R
BRAINERD       CLOUDY    73  66  78 SE3       29.92R
STAPLES        CLOUDY    73  68  83 CALM      29.92R
LONG PRAIRIE   FAIR      72  70  94 CALM      29.93S
LITTLE FALLS   CLOUDY    77  70  78 W7        29.92R
LITCHFIELD     LGT RAIN  75  75 100 N6        29.92R
BUFFALO        MOCLDY    76  72  86 SE5       29.92S
MAPLE LAKE     CLOUDY    77  75  93 CALM      29.91F
$$
MNZ037-044-045-052-053-020300-
   East Central Minnesota

CITY           SKY/WX    TMP DP  RH WIND       PRES   REMARKS
PRINCETON      CLOUDY    75  73  94 CALM      29.91F FOG
MORA           CLOUDY    75  70  83 CALM      29.94R
CAMBRIDGE      MOCLDY    79  68  69 CALM      29.90S
RUSH CITY      MOCLDY    74  72  93 CALM      29.92S
MOOSE LAKE     MOCLDY    72  70  94 CALM      29.91R FOG
HINCKLEY       FAIR      73  73 100 CALM      29.93R
CLOQUET        PTCLDY    72  68  88 CALM      29.94R
MCGREGOR       CLOUDY    73  70  88 CALM      29.93R
$$
MNZ071>073-080-081-089-090-097-098-020300-
   Southwest Minnesota

CITY           SKY/WX    TMP DP  RH WIND       PRES   REMARKS
MONTEVIDEO     CLOUDY    75  75 100 S7        29.90R
GRANITE FALLS  LGT RAIN  74  73  96 CALM      29.91R
CANBY          MOCLDY    75  69  81 SE8       29.89R
MARSHALL       CLOUDY    75  70  83 S5        29.91S
REDWOOD FALLS  CLOUDY    76  72  87 CALM      29.90R
OLIVIA         LGT RAIN  72  70  94 SE5       29.90R
PIPESTONE      CLOUDY    73  72  94 N6        29.91F
WINDOM         MOCLDY    75  72  88 CALM      29.93S
WORTHINGTON    CLOUDY    73  70  88 CALM      29.92R
JACKSON        MOCLDY    77  72  83 S9        29.93S
TRACY          CLOUDY    75  73  93 CALM      29.92R
SLAYTON        CLOUDY    73  72  95 CALM      29.94R
$$
MNZ065>067-074>077-082>085-091>093-020300-
   South Central Minnesota

CITY           SKY/WX    TMP DP  RH WIND       PRES   REMARKS
MANKATO        CLOUDY    77  70  78 S6        29.93R
NEW ULM        MOCLDY    75  72  88 CALM      29.91S
ST JAMES       MOCLDY    75  73  94 NW3       29.93R
FAIRMONT       PTCLDY    73  66  78 S7        29.92R
GLENCOE        CLOUDY    77  74  91 CALM      29.91S
FARIBAULT      MOCLDY    79  73  83 S5        29.93R
OWATONNA       MOCLDY    79  72  78 S8        29.94R
WASECA         MOCLDY    73  70  88 S5        29.95R
ALBERT LEA     PTCLDY    75  72  88 S6        29.95R
$$
MNZ078>079-086>088-094>096-020300-
   Southeast Minnesota

CITY           SKY/WX    TMP DP  RH WIND       PRES   REMARKS
ROCHESTER      MOCLDY    74  72  93 S8        29.96R
RED WING       PTCLDY    77  73  88 CALM      29.91R
STANTON        MOCLDY    75  71  87 CALM      29.92R
DODGE CENTER   PTCLDY    75  72  88 S7        29.95S
WINONA         PTCLDY    79  73  83 SE5       29.93R
AUSTIN         MOCLDY    75  72  88 CALM      29.96R
PRESTON        PTCLDY    75  72  88 S6        29.98R
$$
ABBREVIATIONS USED IN REMARKS
   TC - TEMPERATURES IN CELSIUS
  WCI - WIND CHILL INDEX
   HX - HEAT INDEX
  VSB - VISIBILITY
$$


USA.gov is the U.S. government's official web portal to all federal, state and local government web resources and services.